• In Uzbekistan
  • List of Countries
  • For 7 days
  • Water Temperature
  • Satellite Maps
  • Weather Map
  • Weather Widgets
  • user-avatar
    Login

    Hourly Weather Tskhaltubo

    Today, 19 August, Saturday

    Time Temperature Precipitation Wind Pressure Humidity
    00:00 +24°C° 0 mm 2 mps 743 mmHg 69%
    01:00 +24°C° 0 mm 2 mps 743 mmHg 66%
    02:00 +24°C° 0 mm 2 mps 743 mmHg 63%
    03:00 +23°C° 0 mm 2 mps 743 mmHg 60%
    04:00 +23°C° 0 mm 2 mps 743 mmHg 59%
    05:00 +24°C° 0 mm 2 mps 743 mmHg 57%
    06:00 +24°C° 0 mm 2 mps 743 mmHg 55%
    07:00 +26°C° 0 mm 2 mps 743 mmHg 51%
    08:00 +29°C° 0 mm 2 mps 743 mmHg 47%
    09:00 +31°C° 0 mm 2 mps 743 mmHg 42%
    10:00 +32°C° 0 mm 2 mps 743 mmHg 40%
    11:00 +35°C° 0 mm 2 mps 743 mmHg 38%
    12:00 +36°C° 0 mm 2 mps 743 mmHg 35%
    13:00 +36°C° 0 mm 2 mps 743 mmHg 35%
    14:00 +37°C° 0 mm 2 mps 743 mmHg 35%
    15:00 +37°C° 0 mm 2 mps 743 mmHg 35%
    16:00 +35°C° 0 mm 2 mps 743 mmHg 44%
    17:00 +34°C° 0 mm 2 mps 743 mmHg 52%
    18:00 +31°C° 0 mm 1 mps 743 mmHg 61%
    19:00 +29°C° 0 mm 1 mps 743 mmHg 65%
    20:00 +27°C° 0 mm 1 mps 744 mmHg 70%
    21:00 +25°C° 0 mm 1 mps 744 mmHg 74%
    22:00 +25°C° 0 mm 2 mps 744 mmHg 72%
    23:00 +25°C° 0 mm 2 mps 744 mmHg 69%

    Tomorrow, 20 August, Sunday

    Time Temperature Precipitation Wind Pressure Humidity
    00:00 +25°C° 0 mm 2 mps 744 mmHg 67%
    01:00 +24°C° 0 mm 2 mps 744 mmHg 64%
    02:00 +24°C° 0 mm 2 mps 744 mmHg 61%
    03:00 +24°C° 0 mm 2 mps 744 mmHg 59%
    04:00 +24°C° 0 mm 2 mps 744 mmHg 58%
    05:00 +24°C° 0 mm 2 mps 744 mmHg 57%
    06:00 +24°C° 0 mm 2 mps 744 mmHg 56%
    07:00 +26°C° 0 mm 2 mps 743 mmHg 50%
    08:00 +29°C° 0 mm 2 mps 743 mmHg 43%
    09:00 +32°C° 0 mm 2 mps 743 mmHg 37%
    10:00 +34°C° 0 mm 2 mps 743 mmHg 34%
    11:00 +36°C° 0 mm 2 mps 742 mmHg 30%
    12:00 +37°C° 0 mm 2 mps 742 mmHg 27%
    13:00 +37°C° 0 mm 3 mps 742 mmHg 27%
    14:00 +37°C° 0 mm 3 mps 742 mmHg 28%
    15:00 +37°C° 0 mm 3 mps 741 mmHg 29%
    16:00 +35°C° 0 mm 2 mps 741 mmHg 38%
    17:00 +32°C° 0 mm 2 mps 741 mmHg 47%
    18:00 +30°C° 0 mm 1 mps 741 mmHg 56%
    19:00 +29°C° 0 mm 1 mps 742 mmHg 58%
    20:00 +27°C° 0 mm 2 mps 742 mmHg 59%
    21:00 +25°C° 0 mm 2 mps 743 mmHg 61%
    22:00 +25°C° 0 mm 2 mps 743 mmHg 56%
    23:00 +25°C° 0 mm 2 mps 743 mmHg 51%

    Day after tomorrow, 21 August, Monday

    Time Temperature Precipitation Wind Pressure Humidity
    00:00 +25°C° 0 mm 2 mps 743 mmHg 46%
    01:00 +24°C° 0 mm 2 mps 743 mmHg 46%
    02:00 +24°C° 0 mm 2 mps 743 mmHg 46%
    03:00 +24°C° 0 mm 2 mps 743 mmHg 45%
    04:00 +24°C° 0 mm 2 mps 743 mmHg 46%
    05:00 +24°C° 0 mm 2 mps 742 mmHg 47%
    06:00 +24°C° 0 mm 2 mps 742 mmHg 49%
    07:00 +27°C° 0 mm 2 mps 742 mmHg 44%
    08:00 +30°C° 0 mm 2 mps 742 mmHg 39%
    09:00 +32°C° 0 mm 2 mps 741 mmHg 35%
    10:00 +35°C° 0 mm 2 mps 741 mmHg 31%
    11:00 +37°C° 0 mm 2 mps 741 mmHg 28%
    12:00 +38°C° 0 mm 2 mps 740 mmHg 25%
    13:00 +39°C° 0 mm 2 mps 740 mmHg 24%
    14:00 +39°C° 0 mm 2 mps 739 mmHg 24%
    15:00 +40°C° 0 mm 2 mps 739 mmHg 23%
    16:00 +38°C° 0 mm 2 mps 739 mmHg 30%
    17:00 +35°C° 0 mm 1 mps 739 mmHg 37%
    18:00 +33°C° 0 mm 1 mps 739 mmHg 43%
    19:00 +32°C° 0 mm 2 mps 739 mmHg 41%
    20:00 +30°C° 0 mm 2 mps 739 mmHg 39%
    21:00 +29°C° 0 mm 3 mps 740 mmHg 37%
    22:00 +28°C° 0 mm 3 mps 740 mmHg 35%
    23:00 +28°C° 0 mm 3 mps 740 mmHg 34%

    22 August, Tuesday

    Time Temperature Precipitation Wind Pressure Humidity
    00:00 +27°C° 0 mm 3 mps 740 mmHg 32%
    01:00 +27°C° 0 mm 3 mps 740 mmHg 33%
    02:00 +26°C° 0 mm 2 mps 740 mmHg 33%
    03:00 +26°C° 0 mm 2 mps 740 mmHg 34%
    04:00 +26°C° 0 mm 2 mps 740 mmHg 36%
    05:00 +25°C° 0 mm 2 mps 740 mmHg 38%
    06:00 +25°C° 0 mm 2 mps 740 mmHg 40%
    07:00 +27°C° 0 mm 2 mps 740 mmHg 38%
    08:00 +30°C° 0 mm 2 mps 740 mmHg 36%
    09:00 +33°C° 0 mm 1 mps 740 mmHg 34%
    10:00 +35°C° 0 mm 2 mps 740 mmHg 32%
    11:00 +36°C° 0 mm 2 mps 740 mmHg 31%
    12:00 +37°C° 0 mm 2 mps 740 mmHg 30%
    13:00 +37°C° 0 mm 2 mps 739 mmHg 32%
    14:00 +37°C° 0 mm 3 mps 739 mmHg 35%
    15:00 +36°C° 0 mm 3 mps 739 mmHg 38%
    16:00 +35°C° 0 mm 3 mps 739 mmHg 49%
    17:00 +32°C° 0 mm 2 mps 739 mmHg 59%
    18:00 +30°C° 0 mm 2 mps 739 mmHg 70%
    19:00 +29°C° 0 mm 1 mps 740 mmHg 77%
    20:00 +27°C° 0 mm 1 mps 740 mmHg 84%
    21:00 +23°C° 0 mm 0 mps 741 mmHg 92%
    22:00 +25°C° 0 mm 1 mps 741 mmHg 89%
    23:00 +25°C° 0 mm 1 mps 741 mmHg 86%

    23 August, Wednesday

    Time Temperature Precipitation Wind Pressure Humidity
    00:00 +25°C° 0 mm 1 mps 741 mmHg 84%
    01:00 +25°C° 0 mm 1 mps 741 mmHg 80%
    02:00 +24°C° 0 mm 1 mps 741 mmHg 76%
    03:00 +24°C° 0 mm 1 mps 741 mmHg 72%
    04:00 +24°C° 0 mm 1 mps 742 mmHg 70%
    05:00 +24°C° 0 mm 1 mps 742 mmHg 69%
    06:00 +24°C° 0 mm 1 mps 742 mmHg 68%
    07:00 +26°C° 0 mm 1 mps 742 mmHg 63%
    08:00 +28°C° 0 mm 1 mps 742 mmHg 59%
    09:00 +30°C° 0 mm 1 mps 743 mmHg 54%
    10:00 +31°C° 0 mm 1 mps 743 mmHg 52%
    11:00 +32°C° 0 mm 2 mps 743 mmHg 49%
    12:00 +34°C° 0 mm 3 mps 743 mmHg 47%
    13:00 +33°C° 0.4 mm 3 mps 743 mmHg 54%
    14:00 +31°C° 0.4 mm 3 mps 743 mmHg 60%
    15:00 +31°C° 0.4 mm 3 mps 743 mmHg 67%
    16:00 +29°C° 0.5 mm 3 mps 744 mmHg 74%
    17:00 +28°C° 0.5 mm 3 mps 744 mmHg 80%
    18:00 +27°C° 0.5 mm 2 mps 745 mmHg 86%
    19:00 +26°C° 0.3 mm 2 mps 745 mmHg 90%
    20:00 +25°C° 0.3 mm 1 mps 746 mmHg 93%
    21:00 +22°C° 0.3 mm 0 mps 747 mmHg 97%
    22:00 +22°C° 0.1 mm 0 mps 747 mmHg 96%
    23:00 +22°C° 0.1 mm 0 mps 747 mmHg 96%

    24 August, Thursday

    Time Temperature Precipitation Wind Pressure Humidity
    00:00 +21°C° 0.1 mm 0 mps 747 mmHg 95%
    01:00 +21°C° 0 mm 0 mps 747 mmHg 95%
    02:00 +21°C° 0 mm 0 mps 747 mmHg 94%
    03:00 +23°C° 0 mm 1 mps 747 mmHg 94%
    04:00 +22°C° 0 mm 1 mps 747 mmHg 93%
    05:00 +22°C° 0 mm 1 mps 747 mmHg 91%
    06:00 +22°C° 0 mm 1 mps 747 mmHg 90%
    07:00 +25°C° 0 mm 1 mps 747 mmHg 80%
    08:00 +27°C° 0 mm 1 mps 746 mmHg 70%
    09:00 +30°C° 0 mm 1 mps 746 mmHg 60%
    10:00 +31°C° 0 mm 1 mps 746 mmHg 55%
    11:00 +32°C° 0 mm 2 mps 746 mmHg 50%
    12:00 +35°C° 0 mm 2 mps 745 mmHg 44%
    13:00 +34°C° 0 mm 2 mps 745 mmHg 46%
    14:00 +34°C° 0 mm 3 mps 745 mmHg 48%
    15:00 +34°C° 0 mm 3 mps 745 mmHg 50%
    16:00 +33°C° 0.1 mm 3 mps 746 mmHg 58%
    17:00 +30°C° 0.1 mm 2 mps 746 mmHg 67%
    18:00 +28°C° 0.1 mm 2 mps 746 mmHg 76%
    19:00 +27°C° 0 mm 2 mps 747 mmHg 82%
    20:00 +26°C° 0 mm 1 mps 747 mmHg 88%
    21:00 +22°C° 0 mm 0 mps 747 mmHg 94%
    22:00 +24°C° 0 mm 1 mps 747 mmHg 93%
    23:00 +24°C° 0 mm 1 mps 748 mmHg 91%
    Show more